Regional Weather Roundup
Issued by NWS

Home | Current Version | Previous Version | Graphics & Text | Print | Product List | Glossary On
Versions: 1 2 3 4 5 6 7 8 9 10 11 12 13 14 15 16 17 18 19 20 21 22 23 24 25 26 27 28 29 30 31 32 33 34 35 36 37 38 39 40 41 42 43 44 45 46 47 48 49 50
000
ASUS45 KBOU 041310
RWRCO

WEATHER ROUNDUP FOR COLORADO
NATIONAL WEATHER SERVICE DENVER/BOULDER CO
700 AM MDT SAT JUL 04 2015

NOTE: "FAIR" INDICATES FEW OR NO CLOUDS BELOW 12000 FEET WITH NO
SIGNIFICANT WEATHER AND/OR OBSTRUCTIONS TO VISIBILITY.

COZ001>005-013-030-031-041400-
...NORTHWEST COLORADO...

CITY           SKY/WX    TMP DP  RH WIND       PRES   REMARKS
CRAIG          MOSUNNY   59  47  64 CALM      30.15R
HAYDEN         MOSUNNY   61  39  44 SE9       30.16R
MEEKER         MOSUNNY   60  48  64 CALM      30.18R
MOUNT WERNER   NOT AVBL
STEAMBOAT SPGS MOSUNNY   52  42  69 CALM      30.19S
WALDEN         SUNNY     54  41  62 SE7       30.27S
$$

COZ006>008-011-041400-
...WEST CENTRAL VALLEYS...

CITY           SKY/WX    TMP DP  RH WIND       PRES   REMARKS
GRAND JUNCTION PTSUNNY   75  49  39 SE15      30.07R
MONTROSE       CLOUDY    68  51  54 S16       30.20R
EAGLE          MOSUNNY   59  48  67 CALM      30.24S
RIFLE          PTSUNNY   62  54  74 E3        30.14R
DELTA          CLOUDY    71  52  51 E3        30.16R
NUCLA          CLOUDY    63  50  63 E8        30.23S
$$

COZ017>023-064>068-041400-
...SOUTHWEST COLORADO...

CITY           SKY/WX    TMP DP  RH WIND       PRES   REMARKS
DURANGO        MOSUNNY   54  46  74 N3        30.24S
CORTEZ         SUNNY     58  50  75 CALM      30.20R
PAGOSA SPRINGS MOSUNNY   51  49  91 CALM      30.33R
TELLURIDE      CLOUDY    54  46  76 CALM      30.45R
WOLF CREEK PAS NOT AVBL
$$

COZ009-010-012-014-032>034-037-058>063-041400-
...CENTRAL COLORADO...

CITY           SKY/WX    TMP DP  RH WIND       PRES   REMARKS
ASPEN          MOSUNNY   56  44  64 S5        30.29R
BUENA VISTA    MOSUNNY   56  48  74 CALM      30.30S
COPPER MTN     NOT AVBL
BERTHOUD PASS  FAIR      45  36  70 NW22G37   30.60S
COTTONWOOD PAS NOT AVBL
GUNNISON       PTSUNNY   54  46  76 N3        30.37R
KREMMLING      SUNNY     54  41  62 CALM      30.27S
LEADVILLE      SUNNY     47  42  83 CALM      30.43S
MONARCH PASS   PTSUNNY   45  39  81 W21       30.69R
SALIDA         MOSUNNY   60  49  67 N12       30.34S
SUNLIGHT       PTSUNNY   55  43  62 CALM      30.53R
WILKERSON PASS SUNNY     52  36  54 NW13G20   30.53S
$$

COZ069>075-041400-
...SAN LUIS VALLEY/SANGRE DE CRISTO MOUNTAINS...

CITY           SKY/WX    TMP DP  RH WIND       PRES   REMARKS
ALAMOSA        PTSUNNY   52  48  86 E3        30.30S
LA VETA PASS   MOSUNNY   50  45  81 MISG      30.43R
SAGUACHE       PTSUNNY   54  46  76 N6        30.33S
$$

COZ035-036-038>040-041400-
...NORTHERN COLORADO FRONT RANGE...

CITY           SKY/WX    TMP DP  RH WIND       PRES   REMARKS
DENVER INTL AP MOSUNNY   65  52  62 SW6       30.02S
DMNS CITY PARK   N/A     67  53  62 W3        30.03S
AURORA         MOSUNNY   64  53  67 W5        30.05R
FRONT RANGE AP MOSUNNY   66  55  68 SW6       30.03F
ERIE MUNI ARPT SUNNY     60  57  91 CALM      30.02R
BOULDER MUN AP SUNNY     64  55  72 CALM      30.03S
CENTENNIAL     MOSUNNY   66  53  63 CALM      30.06R
BROOMFIELD     MOSUNNY   64  54  68 CALM      30.05R
FORT COLLINS   SUNNY     63  57  82 N5        30.02S
LONGMONT       SUNNY     66  58  75 CALM      30.03R
$$

COZ041-046-047-076>085-087-088-041400-
...PIKES PEAK/PALMER DIVIDE AND SOUTHERN FOOTHILLS...

CITY           SKY/WX    TMP DP  RH WIND       PRES   REMARKS
COLO. SPRINGS  MOSUNNY   61  54  77 N6        30.12S
A. F. ACADEMY  SUNNY     59  52  77 NE2       30.13S
ELLICOTT       SUNNY    N/A N/A N/A S5        30.09F
FALCON         SUNNY     59  50  71 CALM      30.16S
FORT CARSON    SUNNY     58  54  86 N7        30.08F
LIMON          SUNNY     57  57 100 SE3       30.07R
MONUMENT HILL  NOT AVBL
TRINIDAD       LGT RAIN  63  56  78 W10       30.10S
$$

COZ042>045-048>051-090-091-041400-
...NORTHEAST COLORADO...

CITY           SKY/WX    TMP DP  RH WIND       PRES   REMARKS
GREELEY ARPT   MOSUNNY   63  61  94 NW3       29.99F
AKRON          CLOUDY    63  60  90 S9        30.00S
BURLINGTON     SUNNY     62  59  90 S14       30.02S
WRAY           SUNNY     68  61  77 S8        29.99F
STERLING       CLOUDY    66  61  82 S5          N/A
HOLYOKE        SUNNY     64  61  88 SE7       29.98F
FORT MORGAN    CLOUDY    61  58  90 SE5       29.98F
$$

COZ086-089-092>099-041400-
...SOUTHEAST COLORADO...

CITY           SKY/WX    TMP DP  RH WIND       PRES   REMARKS
PUEBLO         SUNNY     64  57  78 W3        30.02F
LA JUNTA       SUNNY     66  55  67 SW3       30.01R
LAMAR          SUNNY     66  60  81 S5        29.98R
SPRINGFIELD      N/A     68  59  73 SW12      30.03F
$$



USA.gov is the U.S. government's official web portal to all federal, state and local government web resources and services.